Location: Borovka
(49.7741°N, 14.5280°E)
Time: 11:25:51
(UTC+00:00)

PCSat - Visible Passes

Search period start: 07 March 2026 00:00
Search period end: 17 March 2026 00:00
Orbit: 780 x 790 km, 67.1° (Epoch: 7 March)

Date Brightness Start Highest point End Pass type
(mag) Time Alt. Az. Time Alt. Az. Time Alt. Az.
7 Mar 11.7 01:23:58 21° N 01:23:58 21° N 01:26:10 10° NNE visible
7 Mar 11.8 03:04:34 12° NW 03:06:30 14° NNW 03:09:15 10° NNE visible
7 Mar 11.9 04:49:17 10° NNW 04:52:11 14° NNE 04:55:05 10° NE visible
8 Mar 12.0 00:52:18 18° NNE 00:52:18 18° NNE 00:53:54 10° NNE visible
8 Mar 11.7 02:32:53 15° NNW 02:33:46 15° NNW 02:36:51 10° NNE visible
8 Mar 11.9 04:16:51 10° NNW 04:19:26 13° N 04:22:00 10° NE visible
9 Mar 12.2 00:20:35 15° NNE 00:20:35 15° NNE 00:21:37 10° NNE visible
9 Mar 11.7 02:01:11 17° NNW 02:01:11 17° NNW 02:04:31 10° NNE visible
9 Mar 12.0 03:44:19 10° NNW 03:46:39 13° N 03:49:01 10° NNE visible
9 Mar 12.4 23:48:52 12° NNE 23:48:52 12° NNE 23:49:18 10° NNE visible
10 Mar 11.7 01:29:27 18° N 01:29:27 18° N 01:32:13 10° NNE visible
10 Mar 12.0 03:11:37 10° NNW 03:13:53 12° N 03:16:08 10° NNE visible
11 Mar 11.9 00:57:43 18° N 00:57:43 18° N 00:59:56 10° NNE visible
11 Mar 12.0 02:38:46 10° NNW 02:41:06 13° N 02:43:25 10° NNE visible
11 Mar 11.9 04:23:10 10° NNW 04:26:42 17° NNE 04:30:13 10° ENE visible
12 Mar 12.0 00:25:57 17° N 00:25:57 17° N 00:27:40 10° NNE visible
12 Mar 12.0 02:06:32 12° NNW 02:08:19 13° N 02:10:51 10° NNE visible
12 Mar 12.0 03:50:51 10° NNW 03:53:59 15° NNE 03:57:08 10° NE visible
12 Mar 12.2 23:54:10 16° NNE 23:54:10 16° NNE 23:55:23 10° NNE visible
13 Mar 11.9 01:34:45 14° NNW 01:35:33 14° NNW 01:38:24 10° NNE visible
13 Mar 12.1 03:18:27 10° NNW 03:21:15 14° NNE 03:24:01 10° NE visible
13 Mar 12.3 23:22:22 14° NNE 23:22:22 14° NNE 23:23:06 10° NNE visible
14 Mar 11.9 01:02:57 16° NNW 01:02:57 16° NNW 01:06:02 10° NNE visible
14 Mar 12.1 02:45:59 10° NNW 02:48:28 13° N 02:50:58 10° NE visible
14 Mar 11.6 04:29:13 10° NNW 04:33:44 26° NE 04:38:13 10° E visible
14 Mar 12.4 22:50:31 11° NNE 22:50:31 11° NNE 22:50:49 10° NNE visible
15 Mar 12.0 00:31:06 17° N 00:31:06 17° N 00:33:42 10° NNE visible
15 Mar 12.2 02:13:24 10° NNW 02:15:42 13° N 02:17:59 10° NNE visible
15 Mar 11.8 03:56:57 10° NNW 04:01:07 22° NNE 04:05:15 10° E visible
15 Mar 12.0 23:59:13 17° N 23:59:13 17° N 00:01:25 10° NNE visible
16 Mar 12.2 01:40:39 10° NNW 01:42:54 12° N 01:45:10 10° NNE visible
16 Mar 12.0 03:24:40 10° NNW 03:28:27 19° NNE 03:32:13 10° ENE visible
16 Mar 12.1 23:27:17 17° N 23:27:17 17° N 23:29:07 10° NNE visible
